{"data":{"norad_id":56510,"epoch":"2026-09-20T05:08:19.623264Z","epoch_age_seconds":139481,"freshness":"FRESH","line1":"1 56510U 23065H   26263.21411601 -.00000609  00000+0 -12601-4 0  9998","line2":"2 56510  43.0019 193.5838 0001537 270.5884  89.4792 15.27573733186358","mean_motion":15.27573733,"eccentricity":0.0001537,"inclination_deg":43.0019,"raan_deg":193.5838,"arg_perigee_deg":270.5884,"mean_anomaly_deg":89.4792,"bstar":-1.2601e-5,"rev_number":18635,"period_min":94.267135450934,"perigee_km":482.0132945691,"apogee_km":484.1224289436,"semimajor_km":6861.2048617564,"source":"CELESTRAK","updated_at":"2026-09-21T09:00:33.470358Z"}}